Location: Bethera
(33.2010°N, 79.7880°W)
Time: 12:41:34
(UTC-04:00)

Daily predictions for brighter satellites

Satellite Brightness Start Highest point End
(mag) Time Altitude Azimuth Time Altitude Azimuth Time Altitude Azimuth
NOSS 3-3 (A) 4.2 20:08:33 10° S 20:14:05 43° ESE 20:20:00 10° NE
NOSS 3-3 (C) 4.2 20:08:40 10° S 20:14:11 43° ESE 20:20:05 10° NE
Cosmos 2333 4.3 20:08:49 10° S 20:14:19 55° ESE 20:19:48 10° NNE
CZ-2D R/B 4.1 20:11:28 10° SE 20:14:48 30° ENE 20:18:10 10° NNE
Cosmos 1743 Rocket 4.2 20:10:36 10° NNW 20:14:52 61° W 20:19:07 10° S
FengYun 1-2 T 4.3 20:11:39 10° SSE 20:17:14 82° ENE 20:22:53 10° N
Cosmos 2221 2.6 20:14:25 10° S 20:18:40 85° W 20:22:57 10° N
Cosmos 1844 Rocket 3.7 20:14:39 10° N 20:19:31 29° ENE 20:24:21 10° ESE
Cosmos 1455 3.9 20:18:10 10° SE 20:20:28 16° E 20:22:47 10° NE
Cosmos 2151 4.4 20:17:26 10° NNW 20:21:32 43° W 20:25:36 10° SSW
Cosmos 2263 Rocket 3.2 20:16:30 10° NNW 20:21:58 50° WSW 20:27:23 10° S
ERS-2 3.2 20:20:43 10° SE 20:23:49 26° ENE 20:26:56 10° NNE
Cosmos 2219 Rocket 2.5 20:20:14 10° S 20:25:32 43° ESE 20:30:52 10° NE
Cosmos 2237 Rocket 3.4 20:22:24 10° SE 20:26:13 19° E 20:30:05 10° ENE
SL-8 R/B 4.0 20:21:47 10° SSW 20:26:18 44° SE 20:30:51 10° ENE
Cosmos 494 Rocket 4.1 20:23:00 10° N 20:28:09 59° ENE 20:33:18 10° SSE
Cosmos 2154 Rocket 4.3 20:22:44 10° SSE 20:28:41 47° E 20:34:36 10° NNE
Cosmos 1892 4.1 20:28:03 10° NNE 20:31:03 21° ENE 20:33:53 11° SE
Cosmos 2184 Rocket 4.1 20:26:01 10° S 20:32:12 85° W 20:38:23 10° N
Cosmos 1805 Rocket 3.6 20:32:22 10° N 20:36:37 54° E 20:40:51 10° SSE
Cosmos 2278 Rocket 4.1 20:36:09 10° NNE 20:38:54 14° NE 20:41:39 10° E
YAOGAN 6 3.5 20:37:57 12° SE 20:40:49 29° ENE 20:44:00 10° NNE
Resurs 01 Rocket 2.6 20:38:30 11° SE 20:42:01 29° ENE 20:45:50 10° NNE
Cosmos 1437 4.4 20:42:15 10° SSW 20:45:13 36° W 20:48:12 10° N
Cosmos 2251 Rocket 3.9 20:40:44 10° N 20:45:54 46° ENE 20:50:33 12° SE
Envisat 2.9 20:41:04 10° SSE 20:46:08 78° ENE 20:51:13 10° N
Cosmos 2341 Rocket 4.3 20:44:23 10° SSE 20:50:25 47° E 20:56:27 10° NNE
deb Centaur AC-2 4.2 20:46:49 10° WSW 20:51:05 59° S 20:54:21 19° ESE
Meteor 2-21 4.4 20:45:53 10° S 20:51:59 78° E 20:58:10 10° N
ATLAS CENTAUR R/B 1.0 20:49:26 10° SSW 20:53:00 61° ESE 20:56:41 10° NE
Cosmos 1340 3.0 20:51:09 10° SSW 20:54:55 70° W 20:58:42 10° N
In-Cosmos 22 Rocket 4.2 20:54:46 10° N 21:00:13 79° W 21:05:32 10° S
GPS 2-05 Rocket1 3.8 20:57:19 10° W 21:00:26 34° SSW 21:01:59 22° SSE
Timation 1 Rocket 4.5 20:56:16 10° NNW 21:02:08 55° ENE 21:06:16 20° SE
Aureole 2 4.4 20:59:34 10° S 21:02:37 44° ESE 21:05:27 10° NNE
NOSS 0 Rocket 3.9 20:58:33 10° S 21:04:34 60° ESE 21:10:39 10° NNE
ASTRO E2 3.9 21:03:38 10° SSW 21:06:53 24° SSE 21:07:12 24° SSE
Cosmos 1825 3.9 21:09:43 10° NNE 21:11:38 17° ENE 21:11:38 17° ENE
ATLAS 2A CENTAUR R/B 4.4 20:52:59 10° SW 21:12:51 42° SSE 21:19:17 23° ESE
SL-24 R/B - RUBIN 2 3.4 21:08:49 10° NNW 21:13:09 72° ENE 21:15:15 30° SE
SJ-6B 4.2 21:10:29 10° SSW 21:14:17 39° W 21:18:03 10° NNW
Thor Agena Rocket 4.3 21:10:23 10° N 21:15:32 57° WNW 21:20:41 10° SSW
SL-16 R/B 3.8 21:17:50 16° ENE 21:17:50 16° ENE 21:19:33 10° NE
Sakura Rocket 3.3 21:11:32 10° WSW 21:15:55 41° S 21:16:51 35° SE
SJ-11-01 4.3 21:13:16 24° SSE 21:15:58 60° ENE 21:20:35 10° N
Cosmos 1666 Rocket 3.6 21:12:41 10° N 21:17:10 82° W 21:21:00 14° S
Cosmos 1939 Rocket 2.7 21:14:37 20° SSE 21:17:10 88° W 21:21:05 10° NNW
Resurs 1-3 3.5 21:14:50 20° SSE 21:17:49 80° ENE 21:22:13 10° N
USA 186 1.8 21:18:07 42° WSW 21:18:21 44° W 21:20:30 10° NNW
SL-8 Rocket 4.1 21:13:26 10° SSE 21:19:31 53° E 21:25:35 10° NNE
Cosmos 1933 Rocket 4.2 21:19:10 10° NNE 21:23:10 35° E 21:23:24 35° E
Meteor 2-3 Rocket 3.6 21:18:18 10° N 21:23:53 70° E 21:27:23 24° SSE
Cosmos 1869 4.4 21:27:19 29° ENE 21:27:19 29° ENE 21:29:59 10° NNE
ARGOS 4.1 21:25:40 26° E 21:26:21 27° ENE 21:30:47 10° NNE
Cosmos 1151 Rocket 2.9 21:24:42 28° SSE 21:26:49 65° E 21:31:03 10° NNE
GEOS 3 Rocket 4.0 21:23:48 10° NE 21:28:43 38° ESE 21:33:31 10° S
Spot 2 Rocket 3.4 21:26:22 28° SSE 21:29:07 75° ENE 21:34:12 10° N
Cosmos 220 Rocket 4.1 21:25:04 10° N 21:29:18 53° ENE 21:29:56 48° ESE
Sich 1 3.9 21:25:33 10° NNW 21:29:40 49° W 21:33:35 11° SSW
ATLAS 2AS CENTAUR R/B 3.1 21:24:24 10° NNW 21:32:05 56° NE 21:35:15 34° ESE
Cosmos 1980 3.8 21:36:27 10° SSW 21:42:07 76° WNW 21:47:49 10° NNE
Meteor 2-10 Rocket 3.8 21:46:07 49° ESE 21:46:48 52° E 21:52:24 10° NNE
OAO 2 Rocket 3.2 21:43:24 10° WNW 21:48:35 78° SSW 21:49:18 64° SE
Cosmos 1633 Rocket 4.3 21:46:02 10° NNW 21:50:03 38° W 21:52:48 18° SSW
Cosmos 2333 Rocket 3.7 21:45:35 10° SW 21:50:48 37° WNW 21:56:02 10° N
Cosmos 864 Rocket 4.3 21:49:04 38° SSE 21:51:29 69° E 21:57:34 10° NNE
Cosmos 2228 Rocket 3.8 21:52:50 18° SSW 21:55:51 50° W 22:00:08 10° N
Cosmos 1455 4.5 21:52:44 10° SW 21:55:52 24° WNW 21:59:02 10° NNW
Cosmos 1515 Rocket 4.4 21:52:49 17° SSW 21:56:04 50° W 22:00:25 10° N
Cosmos 1408 3.6 21:59:07 10° N 22:01:43 43° NNW 22:01:43 43° NNW
Cosmos 1844 Rocket 4.1 21:58:22 10° NW 22:03:20 32° WSW 22:06:44 18° SSW
H-2A R/B 2.5 22:07:50 45° NE 22:07:50 45° NE 22:11:50 10° N
ERS-1 Rocket 3.7 22:10:13 41° NE 22:10:13 41° NE 22:13:59 10° N
Cosmos 2237 Rocket 3.2 22:04:29 10° SW 22:09:50 45° WNW 22:15:14 10° N
MetOp-A 4.0 22:12:26 77° ENE 22:12:26 77° ENE 22:17:40 10° N
USA 267 3.1 22:07:53 10° NE 22:14:26 77° SE 22:20:58 10° SW
Cosmos 1371 Rocket 4.5 22:11:58 21° SW 22:15:25 60° WNW 22:20:43 10° N
Resurs 01 Rocket 3.9 22:16:04 14° SW 22:18:27 20° W 22:21:44 10° NW
Cosmos 2278 Rocket 2.2 22:17:53 10° NNW 22:23:33 75° WSW 22:23:35 75° WSW
Cosmos 1727 Rocket 3.9 22:25:31 10° N 22:31:34 86° NW 22:31:34 86° NW
Cosmos 2056 Rocket 4.4 22:35:44 40° WSW 22:37:04 48° WNW 22:42:18 10° N
SL-16 R/B 3.1 22:59:34 44° WNW 22:59:34 44° WNW 23:04:41 10° N
Cosmos 2344 3.5 22:58:41 71° WSW 22:59:34 81° WNW 23:07:36 10° NNE
Terra 4.2 23:05:06 17° N 23:05:06 17° N 23:06:19 10° N
ATLAS 2AS CENTAUR R/B 4.3 23:16:29 10° NW 23:22:28 26° WSW 23:22:42 26° WSW
Cosmos 2369 Rocket 4.4 23:38:27 10° N 23:40:15 19° N 23:40:15 19° N
